Dades meteomassalio
Diari Summary for Abril 24, 2017 Units:  English    Metric   Both
« Previous Day
Next Day »
Diari Semanal Mensual Anual Personalitzat
  Maxima: Minima: Mijana:
Temperatura: TemperatureC °F 3.9 °F 16.1 °F
Rosada: DewpointC °F -1.8 °F 2.4 °F
Humitat: Humidity % 22 % 43 %
Velocitat del vent: WindSpeedKMH mph 0.0 mph 7.3 mph
Racha vent: WindSpeedGustKMH mph - -
Vent:- - East
Pressio: PressurehPa in 1011.4 in -
Pluja: 0.0 in    
Historical Graphs
 
 
Tabular Data for Abril 24, 2017
Time Temperature Dew Point Pressure Wind Wind Speed Wind Gust Humidity Rainfall Rate (Hourly) solar Conditions
TemperatureC °F DewpointC °F PressurehPa in Calm     Humidity % HourlyPrecipMM in SolarRadiationWatts/m^2 W/m2 Conditions
00:01 10.8 °F 2.6 °F 1017.2 in Calm     57 % 0.0 in 0.0 W/m2 CLR
00:06 10.6 °F 2.4 °F 1017.2 in Calm     57 % 0.0 in 0.0 W/m2 CLR
00:11 10.4 °F 2.5 °F 1017.2 in Calm     58 % 0.0 in 0.0 W/m2 CLR
00:16 10.1 °F 2.4 °F 1017.2 in Calm     59 % 0.0 in 0.0 W/m2 CLR
00:21 9.9 °F 2.2 °F 1017.2 in Calm     59 % 0.0 in 0.0 W/m2 CLR
00:26 9.7 °F 2.3 °F 1017.2 in Calm     60 % 0.0 in 0.0 W/m2 CLR
00:31 9.6 °F 2.2 °F 1017.2 in Calm     60 % 0.0 in 0.0 W/m2 CLR
00:36 9.6 °F 2.2 °F 1017.2 in Calm     60 % 0.0 in 0.0 W/m2 CLR
00:41 9.4 °F 2.0 °F 1017.2 in Calm     60 % 0.0 in 0.0 W/m2 CLR
00:46 9.2 °F 2.1 °F 1017.2 in Calm     61 % 0.0 in 0.0 W/m2 CLR
00:51 9.0 °F 1.9 °F 1017.2 in Calm     61 % 0.0 in 0.0 W/m2 CLR
00:56 8.9 °F 2.0 °F 1017.2 in Calm     62 % 0.0 in 0.0 W/m2 CLR
01:01 8.8 °F 1.9 °F 1017.2 in Calm     62 % 0.0 in 0.0 W/m2 CLR
01:06 8.7 °F 1.8 °F 1017.2 in Calm     62 % 0.0 in 0.0 W/m2 CLR
01:11 8.6 °F 1.9 °F 1017.2 in Calm     63 % 0.0 in 0.0 W/m2 CLR
01:16 8.5 °F 1.8 °F 1017.2 in Calm     63 % 0.0 in 0.0 W/m2 CLR
01:21 8.6 °F 1.7 °F 1017.2 in Calm     62 % 0.0 in 0.0 W/m2 CLR
01:26 8.4 °F 1.6 °F 1017.2 in Calm     62 % 0.0 in 0.0 W/m2 CLR
01:31 8.4 °F 1.5 °F 1017.2 in Calm     62 % 0.0 in 0.0 W/m2 CLR
01:36 8.4 °F 1.5 °F 1017.2 in Calm     62 % 0.0 in 0.0 W/m2 CLR
01:41 8.3 °F 1.7 °F 1017.2 in Calm     63 % 0.0 in 0.0 W/m2 CLR
01:46 8.2 °F 1.6 °F 1017.2 in Calm     63 % 0.0 in 0.0 W/m2 CLR
01:51 8.1 °F 1.4 °F 1017.2 in Calm     63 % 0.0 in 0.0 W/m2 CLR
01:56 7.9 °F 1.5 °F 1017.2 in Calm     64 % 0.0 in 0.0 W/m2 CLR
02:01 7.8 °F 1.4 °F 1017.2 in Calm     64 % 0.0 in 0.0 W/m2 CLR
02:06 7.7 °F 1.3 °F 1017.2 in Calm     64 % 0.0 in 0.0 W/m2 CLR
02:11 7.6 °F 1.4 °F 1017.2 in Calm     65 % 0.0 in 0.0 W/m2 CLR
02:16 7.4 °F 1.3 °F 1017.2 in Calm     65 % 0.0 in 0.0 W/m2 CLR
02:21 7.3 °F 1.4 °F 1017.2 in Calm     66 % 0.0 in 0.0 W/m2 CLR
02:26 7.2 °F 1.3 °F 1017.2 in Calm     66 % 0.0 in 0.0 W/m2 CLR
02:31 7.1 °F 0.9 °F 1017.2 in Calm     65 % 0.0 in 0.0 W/m2 CLR
02:36 7.1 °F 1.2 °F 1016.8 in Calm     66 % 0.0 in 0.0 W/m2 CLR
02:41 6.9 °F 1.0 °F 1016.8 in Calm     66 % 0.0 in 0.0 W/m2 CLR
02:46 6.9 °F 0.9 °F 1016.8 in SW 7.4 mph 7.4 mph 66 % 0.0 in 0.0 W/m2 CLR
02:51 6.9 °F 0.8 °F 1016.8 in Calm     65 % 0.0 in 0.0 W/m2 CLR
02:57 6.9 °F 0.8 °F 1016.8 in Calm     65 % 0.0 in 0.0 W/m2 CLR
03:02 6.9 °F 0.8 °F 1016.8 in Calm     65 % 0.0 in 0.0 W/m2 CLR
03:07 6.8 °F 0.9 °F 1016.8 in Calm     66 % 0.0 in 0.0 W/m2 CLR
03:12 6.7 °F 0.8 °F 1016.8 in Calm     66 % 0.0 in 0.0 W/m2 CLR
03:17 6.7 °F 0.8 °F 1016.8 in Calm     66 % 0.0 in 0.0 W/m2 CLR
03:22 6.6 °F 0.7 °F 1016.8 in Calm     66 % 0.0 in 0.0 W/m2 CLR
03:27 6.4 °F 0.8 °F 1016.8 in Calm     67 % 0.0 in 0.0 W/m2 CLR
03:32 6.3 °F 0.8 °F 1016.5 in Calm     68 % 0.0 in 0.0 W/m2 CLR
03:37 6.2 °F 0.7 °F 1016.5 in Calm     68 % 0.0 in 0.0 W/m2 CLR
03:42 6.2 °F 0.7 °F 1016.5 in Calm     68 % 0.0 in 0.0 W/m2 CLR
03:47 6.1 °F 0.7 °F 1016.5 in Calm     68 % 0.0 in 0.0 W/m2 CLR
03:52 6.1 °F 0.6 °F 1016.5 in Calm     68 % 0.0 in 0.0 W/m2 CLR
03:57 6.1 °F 0.4 °F 1016.5 in Calm     67 % 0.0 in 0.0 W/m2 CLR
04:02 6.1 °F 0.4 °F 1016.5 in Calm     67 % 0.0 in 0.0 W/m2 CLR
04:07 6.1 °F 0.7 °F 1016.5 in Calm     68 % 0.0 in 0.0 W/m2 CLR
04:12 6.0 °F 0.6 °F 1016.5 in Calm     68 % 0.0 in 0.0 W/m2 CLR
04:17 5.9 °F 0.5 °F 1016.5 in Calm     68 % 0.0 in 0.0 W/m2 CLR
04:22 5.8 °F 0.4 °F 1016.5 in Calm     68 % 0.0 in 0.0 W/m2 CLR
04:27 5.8 °F 0.3 °F 1016.5 in Calm     68 % 0.0 in 0.0 W/m2 CLR
04:32 5.8 °F 0.3 °F 1016.5 in Calm     68 % 0.0 in 0.0 W/m2 CLR
04:37 5.8 °F 0.3 °F 1016.5 in Calm     68 % 0.0 in 0.0 W/m2 CLR
04:42 5.8 °F 0.5 °F 1016.5 in Calm     69 % 0.0 in 0.0 W/m2 CLR
04:47 5.9 °F 0.4 °F 1016.5 in Calm     68 % 0.0 in 0.0 W/m2 CLR
04:52 6.1 °F 0.6 °F 1016.5 in Calm     68 % 0.0 in 0.0 W/m2 CLR
04:57 6.0 °F 0.6 °F 1016.5 in Calm     68 % 0.0 in 0.0 W/m2 CLR
05:02 5.8 °F 0.4 °F 1016.5 in Calm     68 % 0.0 in 0.0 W/m2 CLR
05:07 5.8 °F 0.3 °F 1016.5 in Calm     68 % 0.0 in 0.0 W/m2 CLR
05:12 5.7 °F 0.2 °F 1016.5 in Calm     68 % 0.0 in 0.0 W/m2 CLR
05:17 5.5 °F 0.1 °F 1016.5 in Calm     68 % 0.0 in 0.0 W/m2 CLR
05:22 5.2 °F -0.2 °F 1016.5 in Calm     68 % 0.0 in 0.0 W/m2 CLR
05:27 5.0 °F -0.2 °F 1016.5 in Calm     69 % 0.0 in 0.0 W/m2 CLR
05:32 5.0 °F 0.0 °F 1016.5 in Calm     70 % 0.0 in 0.0 W/m2 CLR
05:37 4.9 °F -0.1 °F 1016.5 in Calm     70 % 0.0 in 0.0 W/m2 CLR
05:42 4.8 °F -0.2 °F 1016.5 in Calm     70 % 0.0 in 0.0 W/m2 CLR
05:47 4.7 °F -0.3 °F 1016.5 in Calm     70 % 0.0 in 0.0 W/m2 CLR
05:52 4.7 °F -0.3 °F 1016.5 in Calm     70 % 0.0 in 0.0 W/m2 CLR
05:57 4.7 °F -0.3 °F 1016.5 in Calm     70 % 0.0 in 0.0 W/m2 CLR
06:02 4.6 °F -0.7 °F 1016.5 in Calm     69 % 0.0 in 0.0 W/m2 CLR
06:07 4.4 °F -0.8 °F 1016.5 in Calm     69 % 0.0 in 0.0 W/m2 CLR
06:12 4.4 °F -0.9 °F 1016.5 in Calm     68 % 0.0 in 0.0 W/m2 CLR
06:17 4.4 °F -0.9 °F 1016.5 in Calm     68 % 0.0 in 0.0 W/m2 CLR
06:22 4.5 °F -1.1 °F 1016.5 in Calm     67 % 0.0 in 0.0 W/m2 CLR
06:27 4.6 °F -1.1 °F 1016.5 in Calm     67 % 0.0 in 0.0 W/m2 CLR
06:32 4.4 °F -1.2 °F 1016.5 in Calm     67 % 0.0 in 0.0 W/m2 CLR
06:37 4.2 °F -1.2 °F 1016.8 in Calm     68 % 0.0 in 0.0 W/m2 CLR
06:42 4.1 °F -1.3 °F 1016.8 in Calm     68 % 0.0 in 0.0 W/m2 CLR
06:47 4.1 °F -1.5 °F 1016.8 in Calm     67 % 0.0 in 0.0 W/m2 CLR
06:52 4.1 °F -1.3 °F 1016.8 in Calm     68 % 0.0 in 0.0 W/m2 CLR
06:57 4.1 °F -1.3 °F 1016.8 in Calm     68 % 0.0 in 0.0 W/m2 CLR
07:02 4.0 °F -1.4 °F 1016.8 in Calm     68 % 0.0 in 0.0 W/m2 OVC
07:07 3.9 °F -1.6 °F 1016.8 in SW 7.4 mph 7.4 mph 67 % 0.0 in 5.0 W/m2 OVC
07:12 4.0 °F -1.8 °F 1016.8 in SW 5.6 mph 5.6 mph 66 % 0.0 in 7.0 W/m2 BKN
07:17 4.2 °F -1.6 °F 1016.8 in Calm     66 % 0.0 in 11.0 W/m2 BKN
07:22 4.2 °F -1.8 °F 1016.8 in Calm     65 % 0.0 in 12.0 W/m2 BKN
07:27 4.3 °F -1.5 °F 1016.8 in Calm     66 % 0.0 in 16.0 W/m2 BKN
07:32 4.3 °F -1.7 °F 1017.2 in Calm     65 % 0.0 in 18.0 W/m2 BKN
07:37 4.3 °F -1.4 °F 1017.2 in Calm     66 % 0.0 in 23.0 W/m2 BKN
07:42 4.5 °F -1.3 °F 1017.2 in Calm     66 % 0.0 in 32.0 W/m2 BKN
07:47 4.7 °F -1.3 °F 1017.2 in Calm     65 % 0.0 in 39.0 W/m2 BKN
07:52 4.8 °F -1.2 °F 1017.2 in Calm     65 % 0.0 in 46.0 W/m2 SCT
07:57 5.0 °F -1.1 °F 1017.2 in Calm     65 % 0.0 in 58.0 W/m2 SCT
08:02 5.2 °F -1.1 °F 1017.2 in Calm     64 % 0.0 in 79.0 W/m2 FEW
08:07 5.6 °F -0.9 °F 1017.2 in Calm     63 % 0.0 in 97.0 W/m2 FEW
08:12 5.9 °F -0.6 °F 1017.2 in Calm     63 % 0.0 in 113.0 W/m2 CLR
08:17 6.3 °F -0.7 °F 1017.2 in Calm     61 % 0.0 in 134.0 W/m2 CLR
08:22 6.5 °F -0.5 °F 1017.2 in Calm     61 % 0.0 in 149.0 W/m2 CLR
08:27 6.9 °F -0.3 °F 1017.2 in Calm     60 % 0.0 in 167.0 W/m2 CLR
08:32 7.4 °F -0.1 °F 1017.2 in Calm     59 % 0.0 in 186.0 W/m2 CLR
08:37 8.0 °F 0.2 °F 1017.2 in Calm     58 % 0.0 in 204.0 W/m2 CLR
08:42 8.6 °F 0.6 °F 1017.2 in Calm     57 % 0.0 in 225.0 W/m2 CLR
08:47 9.2 °F 1.1 °F 1017.2 in Calm     57 % 0.0 in 243.0 W/m2 CLR
08:52 9.8 °F 0.9 °F 1016.8 in Calm     54 % 0.0 in 258.0 W/m2 CLR
08:57 10.3 °F 0.9 °F 1016.8 in Calm     52 % 0.0 in 274.0 W/m2 CLR
09:02 10.9 °F 1.4 °F 1016.8 in Calm     52 % 0.0 in 292.0 W/m2 CLR
09:07 11.4 °F 1.1 °F 1017.2 in Calm     49 % 0.0 in 308.0 W/m2 CLR
09:12 11.8 °F 1.4 °F 1016.8 in Calm     49 % 0.0 in 125.0 W/m2 CLR
09:17 12.2 °F 1.4 °F 1016.8 in Calm     48 % 0.0 in 165.0 W/m2 CLR
09:22 12.4 °F 1.4 °F 1016.8 in Calm     47 % 0.0 in 355.0 W/m2 CLR
09:27 12.8 °F 1.7 °F 1016.8 in Calm     47 % 0.0 in 374.0 W/m2 CLR
09:32 13.2 °F 1.6 °F 1016.8 in Calm     45 % 0.0 in 388.0 W/m2 CLR
09:37 13.7 °F 1.6 °F 1016.8 in Calm     44 % 0.0 in 404.0 W/m2 CLR
09:42 14.1 °F 1.3 °F 1016.8 in Calm     42 % 0.0 in 420.0 W/m2 CLR
09:47 14.6 °F 1.4 °F 1016.5 in Calm     41 % 0.0 in 439.0 W/m2 CLR
09:52 14.9 °F 1.1 °F 1016.5 in Calm     39 % 0.0 in 454.0 W/m2 CLR
09:57 15.4 °F 1.2 °F 1016.5 in Calm     38 % 0.0 in 471.0 W/m2 CLR
10:02 15.9 °F 1.6 °F 1016.5 in Calm     38 % 0.0 in 485.0 W/m2 CLR
10:08 16.4 °F 2.4 °F 1016.5 in Calm     39 % 0.0 in 504.0 W/m2 CLR
10:13 17.1 °F 2.6 °F 1016.5 in Calm     38 % 0.0 in 519.0 W/m2 CLR
10:14 17.2 °F 2.7 °F 1016.5 in Calm     38 % 0.0 in 520.0 W/m2 CLR
10:19 17.5 °F 3.0 °F 1016.5 in Calm     38 % 0.0 in 534.0 W/m2 CLR
10:24 17.7 °F 2.8 °F 1016.5 in Calm     37 % 0.0 in 552.0 W/m2 CLR
10:29 18.0 °F 2.7 °F 1016.5 in Calm     36 % 0.0 in 566.0 W/m2 CLR
10:34 18.4 °F 3.4 °F 1016.1 in Calm     37 % 0.0 in 578.0 W/m2 CLR
10:39 18.5 °F 3.1 °F 1016.1 in NE 7.4 mph 7.4 mph 36 % 0.0 in 592.0 W/m2 CLR
10:44 18.8 °F 3.4 °F 1016.1 in NNE 5.6 mph   36 % 0.0 in 610.0 W/m2 CLR
10:49 19.0 °F 3.2 °F 1016.1 in NE 5.6 mph 5.6 mph 35 % 0.0 in 622.0 W/m2 CLR
10:54 19.1 °F 3.7 °F 1016.1 in NE 9.3 mph 9.3 mph 36 % 0.0 in 638.0 W/m2 CLR
10:59 19.3 °F 3.9 °F 1016.1 in NE 7.4 mph 7.4 mph 36 % 0.0 in 647.0 W/m2 CLR
11:04 19.3 °F 3.9 °F 1016.1 in NNE 5.6 mph 5.6 mph 36 % 0.0 in 661.0 W/m2 CLR
11:09 19.4 °F 4.3 °F 1016.1 in NE 8.0 mph 8.0 mph 37 % 0.0 in 675.0 W/m2 CLR
11:14 19.7 °F 5.0 °F 1016.1 in NE 5.6 mph 5.6 mph 38 % 0.0 in 686.0 W/m2 CLR
11:19 20.1 °F 4.9 °F 1016.1 in ENE 11.1 mph 11.1 mph 37 % 0.0 in 698.0 W/m2 CLR
11:24 20.3 °F 4.7 °F 1015.8 in ENE 11.1 mph 11.1 mph 36 % 0.0 in 708.0 W/m2 CLR
11:29 20.4 °F 4.0 °F 1015.8 in NE 9.3 mph 9.3 mph 34 % 0.0 in 722.0 W/m2 CLR
11:34 20.6 °F 4.1 °F 1015.8 in ENE 12.9 mph 12.9 mph 34 % 0.0 in 733.0 W/m2 CLR
11:39 20.9 °F 4.0 °F 1015.8 in NE 9.3 mph 9.3 mph 33 % 0.0 in 747.0 W/m2 CLR
11:44 21.1 °F 4.2 °F 1015.8 in NE 11.1 mph 11.1 mph 33 % 0.0 in 758.0 W/m2 CLR
11:45 21.1 °F 4.2 °F 1015.8 in NE 11.1 mph 11.1 mph 33 % 0.0 in 759.0 W/m2 CLR
11:50 21.2 °F 3.8 °F 1015.8 in NE 11.3 mph 11.3 mph 32 % 0.0 in 768.0 W/m2 CLR
11:55 21.4 °F 4.0 °F 1015.8 in NE 7.4 mph 7.4 mph 32 % 0.0 in 777.0 W/m2 CLR
12:00 21.8 °F 3.9 °F 1015.8 in NE 11.3 mph 11.3 mph 31 % 0.0 in 788.0 W/m2 CLR
12:05 22.2 °F 4.7 °F 1015.5 in North 5.6 mph 5.6 mph 32 % 0.0 in 800.0 W/m2 CLR
12:10 22.2 °F 4.7 °F 1015.5 in ENE 9.3 mph 9.3 mph 32 % 0.0 in 810.0 W/m2 CLR
12:15 22.3 °F 3.8 °F 1015.5 in ENE 11.1 mph 11.1 mph 30 % 0.0 in 819.0 W/m2 CLR
12:20 22.4 °F 5.4 °F 1015.5 in East 11.1 mph 11.1 mph 33 % 0.0 in 826.0 W/m2 CLR
12:25 22.8 °F 5.2 °F 1015.5 in NE 8.0 mph 8.0 mph 32 % 0.0 in 833.0 W/m2 CLR
12:30 22.8 °F 3.8 °F 1015.5 in ENE 18.5 mph 18.5 mph 29 % 0.0 in 844.0 W/m2 CLR
12:35 22.8 °F 2.8 °F 1015.5 in ENE 11.1 mph 11.1 mph 27 % 0.0 in 849.0 W/m2 CLR
12:40 22.9 °F 3.9 °F 1015.1 in NNE 7.4 mph 7.4 mph 29 % 0.0 in 851.0 W/m2 CLR
12:45 23.3 °F 4.3 °F 1015.1 in ENE 12.9 mph 12.9 mph 29 % 0.0 in 860.0 W/m2 CLR
12:50 23.4 °F 3.4 °F 1015.1 in NE 9.3 mph 9.3 mph 27 % 0.0 in 867.0 W/m2 CLR
12:55 23.8 °F 4.2 °F 1015.1 in NE 11.1 mph 11.1 mph 28 % 0.0 in 870.0 W/m2 CLR
13:00 24.0 °F 4.3 °F 1014.8 in NE 5.6 mph 5.6 mph 28 % 0.0 in 874.0 W/m2 CLR
13:05 23.9 °F 3.7 °F 1014.8 in ENE 12.9 mph 12.9 mph 27 % 0.0 in 881.0 W/m2 CLR
13:10 23.9 °F 3.7 °F 1014.8 in NE 14.8 mph 14.8 mph 27 % 0.0 in 881.0 W/m2 CLR
13:15 24.0 °F 3.8 °F 1014.8 in NNE 9.3 mph 9.3 mph 27 % 0.0 in 884.0 W/m2 CLR
13:20 24.3 °F 4.6 °F 1014.4 in NNW 5.6 mph 5.6 mph 28 % 0.0 in 888.0 W/m2 CLR
13:25 24.4 °F 4.2 °F 1014.4 in NE 14.8 mph 14.8 mph 27 % 0.0 in 889.0 W/m2 CLR
13:30 24.6 °F 3.8 °F 1014.4 in Calm     26 % 0.0 in 891.0 W/m2 CLR
13:35 24.8 °F 4.5 °F 1014.4 in Calm     27 % 0.0 in 895.0 W/m2 CLR
13:40 24.9 °F 4.1 °F 1014.1 in ESE 9.3 mph 9.3 mph 26 % 0.0 in 896.0 W/m2 CLR
13:45 24.8 °F 4.0 °F 1014.1 in NE 4.8 mph 4.8 mph 26 % 0.0 in 893.0 W/m2 CLR
13:50 24.9 °F 4.1 °F 1014.1 in NNW 1.9 mph   26 % 0.0 in 895.0 W/m2 CLR
13:55 25.1 °F 3.7 °F 1013.8 in NE 9.7 mph 9.7 mph 25 % 0.0 in 896.0 W/m2 CLR
14:00 25.2 °F 4.3 °F 1013.8 in NE 8.0 mph 8.0 mph 26 % 0.0 in 893.0 W/m2 CLR
14:05 25.4 °F 5.0 °F 1013.8 in Calm     27 % 0.0 in 891.0 W/m2 CLR
14:10 25.7 °F 5.3 °F 1013.4 in NNE 8.0 mph 8.0 mph 27 % 0.0 in 893.0 W/m2 CLR
14:15 25.6 °F 5.2 °F 1013.4 in ENE 9.3 mph 9.3 mph 27 % 0.0 in 891.0 W/m2 CLR
14:25 26.3 °F 6.3 °F 1013.4 in ENE 16.7 mph 16.7 mph 28 % 0.0 in 884.0 W/m2 CLR
14:30 26.3 °F 6.3 °F 1013.4 in ENE 3.7 mph 3.7 mph 28 % 0.0 in 881.0 W/m2 CLR
14:35 26.5 °F 6.5 °F 1013.1 in ENE 4.8 mph 4.8 mph 28 % 0.0 in 882.0 W/m2 CLR
14:40 26.7 °F 6.7 °F 1013.1 in NE 14.8 mph 14.8 mph 28 % 0.0 in 877.0 W/m2 CLR
14:45 26.8 °F 6.8 °F 1013.1 in ESE 9.3 mph 9.3 mph 28 % 0.0 in 875.0 W/m2 CLR
14:50 26.4 °F 5.9 °F 1013.1 in NE 18.5 mph 18.5 mph 27 % 0.0 in 870.0 W/m2 CLR
14:55 26.2 °F 6.3 °F 1012.8 in NNE 11.1 mph 11.1 mph 28 % 0.0 in 870.0 W/m2 CLR
15:00 26.5 °F 6.5 °F 1012.8 in ENE 18.5 mph 18.5 mph 28 % 0.0 in 860.0 W/m2 CLR
15:05 26.5 °F 6.5 °F 1012.8 in NE 9.7 mph 9.7 mph 28 % 0.0 in 856.0 W/m2 CLR
15:10 26.7 °F 6.7 °F 1012.8 in ENE 14.8 mph 14.8 mph 28 % 0.0 in 838.0 W/m2 CLR
15:15 26.6 °F 6.1 °F 1012.8 in East 16.7 mph 16.7 mph 27 % 0.0 in 842.0 W/m2 CLR
15:20 26.4 °F 5.9 °F 1012.8 in ENE 11.3 mph 11.3 mph 27 % 0.0 in 840.0 W/m2 CLR
15:25 26.4 °F 6.4 °F 1012.4 in ENE 18.5 mph 18.5 mph 28 % 0.0 in 842.0 W/m2 CLR
15:30 26.7 °F 6.7 °F 1012.4 in NE 14.8 mph 14.8 mph 28 % 0.0 in 840.0 W/m2 CLR
15:35 26.8 °F 6.3 °F 1012.4 in ENE 16.7 mph 16.7 mph 27 % 0.0 in 817.0 W/m2 CLR
15:36 26.8 °F 6.3 °F 1012.4 in NE 18.5 mph 18.5 mph 27 % 0.0 in 814.0 W/m2 CLR
15:41 27.1 °F 7.0 °F 1012.4 in NNE 18.5 mph 18.5 mph 28 % 0.0 in 810.0 W/m2 CLR
15:46 27.1 °F 3.5 °F 1012.4 in East 20.4 mph 20.4 mph 22 % 0.0 in 807.0 W/m2 CLR
15:51 27.0 °F 4.1 °F 1012.1 in ESE 22.2 mph 22.2 mph 23 % 0.0 in 800.0 W/m2 CLR
15:56 27.1 °F 4.8 °F 1012.1 in ESE 22.2 mph 22.2 mph 24 % 0.0 in 788.0 W/m2 CLR
16:01 27.3 °F 3.7 °F 1012.1 in SE 25.9 mph 25.9 mph 22 % 0.0 in 786.0 W/m2 CLR
16:06 27.3 °F 3.7 °F 1012.1 in ESE 31.5 mph 31.5 mph 22 % 0.0 in 777.0 W/m2 CLR
16:11 26.8 °F 4.6 °F 1012.1 in ESE 27.4 mph 27.4 mph 24 % 0.0 in 770.0 W/m2 CLR
16:16 26.9 °F 4.6 °F 1012.1 in SSE 18.5 mph 18.5 mph 24 % 0.0 in 766.0 W/m2 CLR
16:21 26.8 °F 3.3 °F 1012.1 in SE 27.8 mph 27.8 mph 22 % 0.0 in 744.0 W/m2 CLR
16:26 26.6 °F 3.8 °F 1011.7 in SE 24.1 mph 24.1 mph 23 % 0.0 in 687.0 W/m2 CLR
16:31 26.6 °F 4.4 °F 1011.7 in ESE 25.9 mph 25.9 mph 24 % 0.0 in 714.0 W/m2 CLR
16:36 26.5 °F 3.1 °F 1011.7 in SE 31.5 mph 31.5 mph 22 % 0.0 in 738.0 W/m2 CLR
16:41 26.4 °F 4.8 °F 1011.7 in ESE 25.9 mph 25.9 mph 25 % 0.0 in 717.0 W/m2 CLR
16:46 26.4 °F 4.8 °F 1011.7 in ESE 25.9 mph 25.9 mph 25 % 0.0 in 712.0 W/m2 CLR
16:51 26.3 °F 4.1 °F 1011.7 in SE 29.6 mph 29.6 mph 24 % 0.0 in 694.0 W/m2 CLR
16:57 26.0 °F 4.4 °F 1011.7 in SE 31.5 mph 31.5 mph 25 % 0.0 in 689.0 W/m2 CLR
17:01 25.7 °F 4.2 °F 1011.7 in SE 31.5 mph 31.5 mph 25 % 0.0 in 687.0 W/m2 CLR
17:06 25.7 °F 4.7 °F 1011.7 in ESE 22.2 mph 22.8 mph 26 % 0.0 in 677.0 W/m2 CLR
17:11 25.6 °F 4.1 °F 1011.7 in SE 24.1 mph 24.1 mph 25 % 0.0 in 663.0 W/m2 CLR
17:16 25.1 °F 4.2 °F 1011.4 in SE 31.5 mph 31.5 mph 26 % 0.0 in 649.0 W/m2 CLR
17:17 25.1 °F 4.2 °F 1011.4 in SSE 29.6 mph 29.6 mph 26 % 0.0 in 643.0 W/m2 CLR
17:22 25.1 °F 4.2 °F 1011.4 in SE 27.8 mph 27.8 mph 26 % 0.0 in 635.0 W/m2 CLR
17:27 25.1 °F 3.7 °F 1011.4 in SSE 31.5 mph 31.5 mph 25 % 0.0 in 617.0 W/m2 CLR
17:32 25.2 °F 3.8 °F 1011.4 in SE 27.8 mph 27.8 mph 25 % 0.0 in 605.0 W/m2 CLR
17:37 25.2 °F 4.3 °F 1011.7 in ENE 24.1 mph 24.1 mph 26 % 0.0 in 619.0 W/m2 CLR
17:42 25.2 °F 3.8 °F 1011.7 in ENE 22.2 mph 22.2 mph 25 % 0.0 in 610.0 W/m2 CLR
17:47 25.1 °F 3.7 °F 1011.7 in ENE 27.8 mph 27.8 mph 25 % 0.0 in 598.0 W/m2 CLR
17:52 24.9 °F 3.5 °F 1011.7 in ENE 27.8 mph 27.8 mph 25 % 0.0 in 566.0 W/m2 CLR
17:57 24.8 °F 3.9 °F 1011.7 in ENE 24.1 mph 24.1 mph 26 % 0.0 in 520.0 W/m2 CLR
18:02 24.8 °F 3.9 °F 1011.7 in ENE 20.9 mph 20.9 mph 26 % 0.0 in 475.0 W/m2 CLR
18:08 24.6 °F 3.8 °F 1011.4 in ENE 22.2 mph 22.2 mph 26 % 0.0 in 454.0 W/m2 CLR
18:13 24.6 °F 3.8 °F 1011.4 in ENE 24.1 mph 24.1 mph 26 % 0.0 in 427.0 W/m2 CLR
18:18 24.6 °F 4.3 °F 1011.7 in ENE 18.5 mph 18.5 mph 27 % 0.0 in 413.0 W/m2 CLR
18:23 24.6 °F 3.8 °F 1011.7 in ENE 24.1 mph 24.1 mph 26 % 0.0 in 381.0 W/m2 CLR
18:27 24.4 °F 4.2 °F 1011.7 in ENE 19.3 mph 19.3 mph 27 % 0.0 in 378.0 W/m2 CLR
18:33 24.4 °F 4.2 °F 1011.7 in ENE 24.1 mph 24.1 mph 27 % 0.0 in 362.0 W/m2 CLR
18:38 24.2 °F 4.0 °F 1011.7 in ENE 20.4 mph 20.4 mph 27 % 0.0 in 350.0 W/m2 CLR
18:43 24.2 °F 4.6 °F 1011.7 in ENE 18.5 mph 18.5 mph 28 % 0.0 in 334.0 W/m2 CLR
18:48 24.2 °F 4.5 °F 1011.7 in ENE 17.7 mph 17.7 mph 28 % 0.0 in 316.0 W/m2 CLR
18:53 24.1 °F 4.9 °F 1011.7 in ENE 14.5 mph 14.5 mph 29 % 0.0 in 302.0 W/m2 CLR
18:58 23.9 °F 4.8 °F 1011.7 in ENE 20.4 mph 20.4 mph 29 % 0.0 in 285.0 W/m2 CLR
19:03 23.8 °F 4.7 °F 1011.7 in ENE 14.8 mph 14.8 mph 29 % 0.0 in 274.0 W/m2 CLR
19:08 23.8 °F 4.7 °F 1011.7 in ENE 18.5 mph 18.5 mph 29 % 0.0 in 262.0 W/m2 CLR
19:13 23.8 °F 4.7 °F 1011.7 in ENE 16.7 mph 16.7 mph 29 % 0.0 in 241.0 W/m2 CLR
19:18 23.6 °F 5.0 °F 1011.7 in ENE 22.2 mph 22.2 mph 30 % 0.0 in 216.0 W/m2 CLR
19:23 23.3 °F 5.2 °F 1011.7 in ENE 18.5 mph 18.5 mph 31 % 0.0 in 197.0 W/m2 CLR
19:28 23.2 °F 4.6 °F 1011.7 in ENE 18.5 mph 18.5 mph 30 % 0.0 in 176.0 W/m2 CLR
19:33 22.9 °F 4.9 °F 1011.7 in ENE 22.2 mph 22.2 mph 31 % 0.0 in 158.0 W/m2 CLR
19:38 22.8 °F 4.8 °F 1011.7 in ENE 18.5 mph 18.5 mph 31 % 0.0 in 141.0 W/m2 CLR
19:43 22.7 °F 4.7 °F 1011.7 in ENE 18.5 mph 18.5 mph 31 % 0.0 in 121.0 W/m2 CLR
19:48 22.7 °F 4.7 °F 1011.7 in ENE 16.7 mph 16.7 mph 31 % 0.0 in 105.0 W/m2 CLR
19:53 22.7 °F 4.2 °F 1011.4 in ENE 16.7 mph 16.7 mph 30 % 0.0 in 91.0 W/m2 CLR
19:58 22.6 °F 3.6 °F 1011.7 in ENE 14.8 mph 14.8 mph 29 % 0.0 in 37.0 W/m2 BKN
20:03 22.4 °F 4.0 °F 1011.7 in ENE 14.5 mph 14.5 mph 30 % 0.0 in 62.0 W/m2 SCT
20:08 22.4 °F 3.0 °F 1011.7 in ENE 18.5 mph 18.5 mph 28 % 0.0 in 47.0 W/m2 SCT
20:13 22.4 °F 1.4 °F 1011.7 in ENE 14.8 mph 14.8 mph 25 % 0.0 in 40.0 W/m2 BKN
20:18 22.3 °F 2.4 °F 1011.7 in ENE 5.6 mph 5.6 mph 27 % 0.0 in 30.0 W/m2 BKN
20:23 22.1 °F 2.7 °F 1011.7 in ENE 7.4 mph 7.4 mph 28 % 0.0 in 21.0 W/m2 BKN
20:28 21.8 °F 3.4 °F 1011.7 in ENE 11.3 mph 11.3 mph 30 % 0.0 in 19.0 W/m2 BKN
20:33 21.6 °F 2.8 °F 1011.7 in ENE 5.6 mph 5.6 mph 29 % 0.0 in 16.0 W/m2 BKN
20:38 21.6 °F 1.3 °F 1011.7 in ENE 6.4 mph 6.4 mph 26 % 0.0 in 12.0 W/m2 BKN
20:43 21.6 °F 1.2 °F 1011.7 in SSE 13.0 mph 13.0 mph 26 % 0.0 in 7.0 W/m2 BKN
20:48 21.4 °F 1.1 °F 1011.7 in SE 5.6 mph 5.6 mph 26 % 0.0 in 0.0 W/m2 OVC
20:53 21.3 °F 1.5 °F 1012.1 in SE 5.6 mph 5.6 mph 27 % 0.0 in 0.0 W/m2 OVC
20:58 21.1 °F 1.4 °F 1012.1 in SSE 11.1 mph 11.1 mph 27 % 0.0 in 0.0 W/m2 OVC
21:03 20.9 °F 1.2 °F 1012.1 in SSE 11.1 mph 11.1 mph 27 % 0.0 in 0.0 W/m2 CLR
21:08 20.7 °F 1.6 °F 1012.1 in SE 11.3 mph 11.3 mph 28 % 0.0 in 0.0 W/m2 CLR
21:13 20.6 °F 1.4 °F 1012.1 in SSE 13.0 mph 13.0 mph 28 % 0.0 in 0.0 W/m2 CLR
21:18 20.5 °F 1.3 °F 1012.1 in SE 9.7 mph 9.7 mph 28 % 0.0 in 0.0 W/m2 CLR
21:23 20.3 °F 1.2 °F 1012.1 in SE 11.1 mph 11.1 mph 28 % 0.0 in 0.0 W/m2 CLR
21:28 20.2 °F 1.1 °F 1012.1 in SE 13.0 mph 13.0 mph 28 % 0.0 in 0.0 W/m2 CLR
21:33 20.1 °F 1.0 °F 1012.1 in SE 11.3 mph 11.3 mph 28 % 0.0 in 0.0 W/m2 CLR
21:38 20.0 °F 0.9 °F 1012.1 in SSE 13.0 mph 13.0 mph 28 % 0.0 in 0.0 W/m2 CLR
21:43 19.8 °F 0.8 °F 1012.1 in SSE 11.1 mph 11.1 mph 28 % 0.0 in 0.0 W/m2 CLR
21:48 19.8 °F 0.7 °F 1012.1 in SE 11.1 mph 11.1 mph 28 % 0.0 in 0.0 W/m2 CLR
21:53 19.7 °F 0.6 °F 1012.1 in Calm   0.3 mph 28 % 0.0 in 0.0 W/m2 CLR
21:58 19.6 °F 0.1 °F 1012.1 in SE 3.7 mph 3.7 mph 27 % 0.0 in 0.0 W/m2 CLR
22:03 19.6 °F 0.1 °F 1012.4 in SSE 5.6 mph 5.6 mph 27 % 0.0 in 0.0 W/m2 CLR
22:08 19.5 °F -0.6 °F 1012.1 in Calm     26 % 0.0 in 0.0 W/m2 CLR
22:13 19.5 °F -0.6 °F 1012.4 in SE 5.6 mph 5.6 mph 26 % 0.0 in 0.0 W/m2 CLR
22:18 19.4 °F -0.6 °F 1012.4 in East 5.6 mph 5.6 mph 26 % 0.0 in 0.0 W/m2 CLR
22:23 19.2 °F 0.3 °F 1012.1 in Calm     28 % 0.0 in 0.0 W/m2 CLR
22:28 18.9 °F 0.0 °F 1012.4 in Calm     28 % 0.0 in 0.0 W/m2 CLR
22:33 18.8 °F -0.1 °F 1012.4 in Calm     28 % 0.0 in 0.0 W/m2 CLR
22:38 18.7 °F -0.2 °F 1012.4 in ENE 3.7 mph   28 % 0.0 in 0.0 W/m2 CLR
22:43 18.6 °F 0.6 °F 1012.4 in Calm     30 % 0.0 in 0.0 W/m2 CLR
22:48 18.3 °F 0.4 °F 1012.4 in Calm     30 % 0.0 in 0.0 W/m2 CLR
22:53 17.9 °F 3.1 °F 1012.4 in Calm     37 % 0.0 in 0.0 W/m2 CLR
22:59 17.6 °F 2.7 °F 1012.4 in Calm     37 % 0.0 in 0.0 W/m2 CLR
23:04 17.6 °F 3.4 °F 1012.8 in Calm     39 % 0.0 in 0.0 W/m2 CLR
23:09 17.4 °F 3.7 °F 1012.8 in Calm     40 % 0.0 in 0.0 W/m2 CLR
23:14 17.3 °F 4.2 °F 1012.8 in Calm     42 % 0.0 in 0.0 W/m2 CLR
23:19 16.9 °F 4.9 °F 1012.8 in Calm     45 % 0.0 in 0.0 W/m2 CLR
23:24 16.5 °F 5.7 °F 1012.8 in Calm     49 % 0.0 in 0.0 W/m2 CLR
23:39 16.1 °F 5.4 °F 1012.4 in Calm     49 % 0.0 in 0.0 W/m2 CLR
23:44 16.1 °F 5.7 °F 1012.4 in Calm     50 % 0.0 in 0.0 W/m2 CLR
23:49 16.1 °F 5.7 °F 1012.4 in Calm     50 % 0.0 in 0.0 W/m2 CLR
23:54 16.1 °F 5.7 °F 1012.4 in NE 3.7 mph 3.7 mph 50 % 0.0 in 0.0 W/m2 CLR
23:59 16.1 °F 5.9 °F 1012.4 in ENE 5.6 mph 5.6 mph 51 % 0.0 in 0.0 W/m2 CLR
Lo Temps de Massalio
Compliments of Weather Underground - 1.25 mb